Flag for Canada Weather past 2 weeks in Cambridge, Ontario, Canada

Now
19 °F

Broken clouds.


Feels Like: 6 °F
Forecast: 4 / 23 °F
Wind: 14 mph from Southwest

Location: Waterloo Well

Current Time: Jan 31, 2015 at 12:50:54 PM

Latest Report: Jan 31, 2015 at 12:00 PM


Visibility: 9 mi

Pressure: 30.27 "Hg

Humidity: 73%

Dew point: 12 °F

Location of CambridgeLocation

Historic Weather in Cambridge — Graph

°F

Cambridge temperature yesterday

Maximum temperature yesterday: 27 °F (at 12:00 AM)
Minimum temperature yesterday: 0 °F (at 8:00 PM)
Average temperature yesterday: 12 °F

Past Weeks' High & Low Weather Summary

 TemperatureHumidityPressure
High41 °F (Jan 17, 11:00 PM)100% (Jan 18, 8:00 AM)30.41 "Hg (Jan 18, 8:00 AM)
Low-8 °F (Jan 17, 1:00 AM)26% (Jan 28, 4:00 PM)29.49 "Hg (Jan 24, 2:59 PM)
Average18 °F79%30.02 "Hg
* Reported Jan 16 12:00 Noon — Jan 31 12:00 Noon, Cambridge, Weather by CustomWeather, © 2014

Note: Actual official high and low records may vary slightly from our data, if they occured in-between our weather recording intervals... More about our weather records

Advertising

Cambridge weather history for previous 24 hours

 ConditionsComfort  
Time TempWeatherWind HumidityBarometerVisibility
12:00 PM
Jan 31
19 °FBroken clouds.14 mph73%30.27 "Hg9 mi
11:00 AM18 °FSunny.12 mph73%30.31 "Hg9 mi
10:00 AM14 °FMostly cloudy.10 mph79%30.32 "Hg9 mi
9:00 AM12 °FOvercast.8 mph79%30.32 "Hg9 mi
8:00 AM10 °FOvercast.7 mph72%30.33 "Hg9 mi
7:00 AM10 °FOvercast.5 mph79%30.33 "Hg9 mi
6:00 AM7 °FOvercast.2 mph92%30.33 "Hg9 mi
5:00 AM7 °FLight snow. Overcast.2 mph85%30.34 "Hg9 mi
4:00 AM7 °FLight snow. Overcast.2 mph85%30.35 "Hg9 mi
3:51 AM7 °FLight snow. Mostly cloudy.2 mph85%30.35 "Hg9 mi
3:00 AM5 °FMostly cloudy.No wind92%30.36 "Hg9 mi
2:00 AM5 °FLight snow. Overcast.No wind92%30.38 "Hg9 mi
1:00 AM5 °FLight snow. Mostly cloudy.No wind85%30.39 "Hg7 mi
12:50 AM3 °FLight snow. Mostly cloudy.2 mph92%30.39 "Hg9 mi
12:00 AM3 °FLight snow. Overcast.2 mph85%30.40 "Hg9 mi
11:00 PM
Jan 30
0 °FOvercast.2 mph92%30.40 "Hg9 mi
10:00 PM0 °FPassing clouds.No wind84%30.41 "Hg9 mi
9:00 PM1 °FClear.6 mph92%30.40 "Hg9 mi
8:00 PM0 °FClear.3 mph84%30.41 "Hg9 mi
7:00 PM3 °FClear.6 mph85%30.40 "Hg9 mi
6:00 PM5 °FClear.9 mph78%30.38 "Hg9 mi
5:00 PM7 °FSunny.18 mph66%30.37 "Hg9 mi
4:00 PM9 °FSunny.16 mph61%30.35 "Hg9 mi
3:00 PM9 °FSunny.20 mph66%30.32 "Hg9 mi
2:00 PM10 °FSunny.18 mph61%30.31 "Hg9 mi
1:00 PM10 °FSunny.18 mph67%30.28 "Hg9 mi
12:00 PM10 °FSunny.20 mph61%30.27 "Hg9 mi
Weather by CustomWeather, © 2014

See weather overviewHow to use our weather pages